GFSNW_con_3kmhel_072.txt.gz
Helicity
84 85 90 70 70 136 116 234 241 74 18 287 350 241 234 366 178 208 207 133 102 106 96 60 55 47 74 7 101 91 77 116 100 83 91 23 -14 -5 20 6 58 100 108 58
108 93 95 79 79 180 199 363 291 121 52 293 308 173 200 191 241 142 227 144 92 62 85 85 61 77 73 47 51 74 150 135 113 97 85 86 82 26 14 5 9 28 31 48
110 112 108 86 87 196 243 446 361 202 110 96 158 218 192 181 220 228 172 186 158 106 126 86 95 107 93 74 11 93 131 93 71 51 30 41 41 44 55 42 11 7 43 16
106 123 113 106 104 245 378 460 360 354 219 130 154 169 170 177 163 180 232 142 146 121 136 96 90 102 105 108 108 78 84 84 51 29 17 26 10 -4 27 22 17 17 31 19
120 99 100 136 121 315 444 493 387 258 224 60 105 209 224 103 134 112 193 166 125 146 123 160 161 151 199 137 105 105 139 99 79 51 62 40 19 -2 2 16 8 6 8 -27
69 91 115 163 143 442 411 400 309 235 220 70 147 164 160 227 134 134 76 164 143 84 74 103 157 186 227 275 207 109 149 129 109 58 69 75 49 26 50 47 53 41 -10 -10
58 89 127 222 178 383 446 373 333 336 243 135 78 75 100 188 242 97 155 130 127 148 149 104 125 67 81 150 236 171 127 111 120 82 94 125 21 98 47 42 51 57 25 7
62 87 117 269 187 356 405 313 362 268 279 127 22 39 40 131 257 147 108 146 89 166 126 65 17 14 87 48 130 146 114 104 157 180 114 108 78 119 121 127 40 41 55 15
76 95 119 257 204 345 469 352 345 260 237 83 29 51 50 92 212 213 110 91 120 165 176 135 65 -42 26 175 130 129 131 129 151 188 172 127 77 86 120 130 28 38 44 8
120 111 145 188 273 335 440 426 306 262 134 132 52 34 59 -25 94 230 197 151 210 158 136 182 125 50 116 53 159 183 202 197 148 134 160 129 117 131 154 110 103 59 49 33
144 123 77 210 339 335 422 358 334 260 180 143 171 83 59 23 -1 160 274 185 204 195 176 211 174 147 84 116 87 123 195 180 193 207 185 151 144 207 172 136 94 73 54 65
154 77 186 205 348 289 365 339 282 235 211 138 159 174 177 224 109 86 177 232 138 220 205 202 207 191 141 55 76 133 130 126 159 119 125 150 88 75 85 111 84 108 86 97
141 80 138 287 297 242 415 418 366 236 207 105 81 98 97 22 123 167 153 157 131 154 223 227 177 160 135 142 94 51 129 165 170 117 94 73 69 64 129 117 128 124 88 109
53 94 249 321 238 266 412 348 353 219 183 76 42 27 30 113 57 24 95 78 184 165 194 183 133 108 88 79 67 56 59 96 109 127 98 89 71 65 67 98 93 104 81 111
110 208 252 263 251 284 369 276 183 150 159 33 -32 14 -11 7 226 -29 -6 116 85 135 181 193 147 144 114 87 105 76 123 107 139 137 72 114 64 85 60 72 74 122 109 128
203 265 266 240 253 344 403 201 68 52 75 7 98 31 11 -6 176 78 19 32 118 113 118 148 170 184 157 117 75 65 84 109 100 119 100 88 97 126 96 65 89 113 162 181
266 254 193 264 264 309 208 96 36 124 141 8 57 -17 12 64 82 61 85 125 113 118 107 106 113 122 146 147 97 126 101 107 126 124 140 127 98 104 115 105 109 163 232 240
174 201 233 216 211 191 131 103 21 133 184 71 28 8 88 70 167 121 114 104 107 126 149 217 187 165 170 132 90 91 124 150 148 119 104 137 119 116 156 149 149 201 238 298
134 136 147 194 165 127 135 57 33 104 95 -54 -150 173 76 118 163 158 191 177 212 177 169 169 151 149 152 126 80 89 77 131 111 128 181 143 105 134 121 124 136 211 261 326
124 207 242 190 83 -21 33 26 100 48 -6 -68 -249 -215 81 69 293 198 121 177 157 168 140 145 144 104 144 196 188 168 70 60 75 112 88 102 127 164 102 63 145 163 218 244
224 213 142 106 19 47 147 72 19 -5 -124 -196 -179 -58 245 138 181 284 253 131 127 139 145 172 132 123 172 225 178 135 121 91 106 116 108 109 120 111 156 218 266 290 287 340
96 111 47 133 123 133 104 55 38 8 -71 -121 -66 33 135 118 174 231 198 168 160 91 193 163 127 212 238 221 242 205 163 147 193 177 159 135 147 183 210 228 254 297 347 460
120 198 84 143 142 85 53 -16 -15 -29 -91 -57 61 151 136 71 53 82 62 65 100 107 196 238 205 202 190 174 151 157 162 163 160 185 209 225 256 253 226 268 320 374 358 375
148 188 125 113 3 29 129 26 -38 -34 9 27 88 105 81 17 73 34 53 53 69 82 85 119 153 203 209 204 199 137 171 157 190 214 226 257 262 285 299 304 293 378 424 441
123 129 27 35 29 10 -3 8 27 75 61 69 65 61 1 22 45 53 28 65 93 153 187 128 68 75 85 99 99 123 158 186 202 205 228 243 270 318 352 343 360 416 443 403
21 -3 14 54 86 84 88 98 83 107 81 77 35 13 19 33 66 50 72 61 74 48 55 50 72 106 125 144 152 163 168 184 181 188 204 245 312 319 318 366 358 320 279 262
-1 10 80 92 71 92 103 102 90 117 84 76 55 51 62 36 69 72 58 58 44 43 66 86 100 102 117 132 147 152 158 173 178 195 217 225 218 257 290 283 223 210 198 178

GFSNW_con_3kmhel_075.txt.gz
Helicity
147 124 112 85 46 50 88 258 308 143 116 232 239 226 104 181 105 93 70 57 73 107 130 90 91 48 12 25 35 51 -0 56 78 79 24 -5 6 51 9 -38 -35 7 -18 -41
136 110 98 85 64 79 157 351 396 140 106 336 222 33 87 201 233 178 61 105 95 70 128 204 31 22 59 42 6 43 32 84 93 45 57 90 43 -40 -18 -8 -29 -60 10 8
109 109 96 63 90 124 185 402 436 307 150 83 122 41 90 122 189 170 66 64 46 95 122 138 116 60 58 90 54 11 40 78 72 74 46 47 38 4 -8 -16 -29 -2 -19 -16
67 111 97 56 77 154 250 417 430 488 406 195 28 65 107 88 69 220 171 96 47 81 110 123 113 28 48 60 81 93 35 35 47 23 19 18 22 48 13 -17 -8 -1 12 -9
87 57 86 91 65 163 345 452 417 313 216 116 53 51 39 72 99 99 171 107 62 67 90 90 100 87 93 112 61 65 43 56 29 42 32 23 35 29 1 -5 16 15 -1 18
66 85 55 109 101 238 351 289 265 243 245 156 135 86 19 20 63 74 58 69 88 55 59 104 239 212 94 146 259 75 75 63 70 83 35 29 77 -7 -1 5 13 19 2 -11
56 62 77 100 136 228 351 334 329 350 264 108 88 78 21 -25 57 113 59 57 69 76 34 89 124 165 266 66 330 230 183 107 86 113 164 108 94 24 6 11 -12 5 19 19
40 46 97 78 188 222 316 348 351 270 291 108 69 63 38 2 51 79 192 70 24 62 68 114 82 114 183 100 246 259 165 182 132 145 88 82 47 88 58 23 12 4 6 16
20 27 78 79 113 208 289 329 304 250 181 81 33 75 44 17 32 94 106 198 96 95 105 146 78 86 60 -45 45 199 146 112 107 129 93 67 64 71 62 22 24 -5 -0 4
30 17 70 108 72 193 294 402 249 267 159 95 83 95 103 17 6 60 110 140 96 80 179 137 124 90 78 42 65 90 217 204 152 117 131 105 48 76 74 78 21 22 43 46
59 39 84 76 64 174 298 366 298 261 204 176 74 138 42 41 23 55 100 154 156 152 163 143 140 109 99 75 57 77 86 133 199 141 133 126 110 162 108 78 -13 49 45 45
94 44 24 82 202 147 313 342 264 220 211 159 152 186 157 113 11 7 73 89 204 221 136 172 158 173 152 92 53 60 72 81 129 142 128 87 91 69 64 31 47 66 56 75
92 119 59 66 169 183 399 318 343 298 275 174 108 98 80 128 148 127 33 85 79 138 81 91 98 156 152 136 110 74 66 34 79 65 74 88 47 20 35 63 59 86 87 83
87 103 77 141 214 390 410 345 319 303 295 102 72 92 66 86 56 69 114 181 9 78 92 114 144 159 123 94 78 61 91 75 75 69 38 31 129 91 67 31 49 61 58 43
148 93 115 183 417 480 441 329 250 191 185 66 92 58 28 53 47 59 91 150 244 142 148 184 145 125 140 109 113 88 65 65 115 85 32 31 21 67 64 55 59 91 75 53
106 68 104 546 596 471 545 440 327 153 220 190 90 138 -86 30 49 31 47 108 209 210 167 120 115 94 106 100 66 47 42 59 61 60 63 63 101 90 104 91 86 66 69 81
62 132 497 593 444 368 202 124 80 205 198 157 83 47 43 15 34 58 37 55 147 123 108 108 84 107 132 105 56 44 33 38 23 75 96 76 63 114 110 119 135 133 132 156
221 462 427 372 395 305 201 129 30 187 158 114 28 2 78 5 78 80 -2 -34 30 30 121 131 98 147 182 110 55 32 63 125 147 80 59 115 133 97 98 99 100 110 120 166
429 423 406 485 375 255 185 55 -22 56 133 15 -6 -20 -37 95 85 7 -43 51 78 94 86 106 129 112 109 87 32 30 20 36 80 104 131 107 124 112 71 80 111 158 186 154
275 335 247 156 80 -1 88 77 62 73 96 24 -43 5 -155 7 225 190 225 105 110 79 61 94 140 93 85 138 131 148 226 110 93 82 58 71 71 75 79 74 132 144 217 207
208 252 219 76 -1 35 107 103 88 104 74 -13 -26 -96 -42 -33 267 235 173 92 181 108 114 144 155 153 132 224 194 145 133 133 103 97 105 108 85 77 118 184 208 164 194 313
166 123 169 117 40 68 67 96 124 35 15 -2 -30 -82 -84 25 77 182 55 184 179 86 100 170 156 199 261 284 229 173 161 146 164 167 157 160 201 255 246 242 255 270 291 318
213 244 177 102 107 102 58 -6 -3 -14 -3 -19 -35 -9 22 65 118 169 134 91 165 116 143 205 210 237 265 291 300 308 328 313 282 264 268 287 331 282 241 245 224 265 320 335
177 200 145 158 153 126 68 38 23 11 -15 -70 22 84 70 42 45 97 193 114 129 156 111 172 230 264 236 229 227 217 234 228 203 209 245 291 338 345 297 242 224 285 352 333
150 165 193 95 68 8 25 54 16 19 6 35 129 95 40 24 92 208 82 89 155 207 187 234 207 199 178 187 231 243 234 275 278 263 265 254 254 279 330 332 315 321 310 305
101 68 53 76 18 14 70 88 64 79 49 16 32 59 22 33 54 47 60 77 143 161 171 134 121 131 162 188 190 190 181 203 222 233 260 282 303 293 276 292 290 279 252 234
21 14 25 60 46 64 76 100 117 149 62 40 22 38 16 40 40 55 70 78 70 62 79 95 109 117 123 133 169 195 207 225 235 215 197 196 179 184 225 251 218 200 182 164

GFSNW_con_3kmhel_081.txt.gz
Helicity
35 33 27 0 -27 25 71 153 197 90 161 215 314 211 266 100 123 75 35 26 13 -20 8 86 81 96 87 57 110 107 168 117 68 -18 65 56 197 123 119 105 62 66 103 12
-51 -53 -53 -51 -46 51 141 169 207 -8 180 266 182 208 39 -17 1 9 56 56 -7 -43 162 32 37 124 68 43 130 156 187 235 176 64 62 43 176 160 105 126 121 95 98 -15
-37 -35 -31 -32 -42 54 144 192 242 311 198 343 160 125 32 2 44 2 2 -40 113 -8 138 85 -50 199 71 128 99 174 240 250 101 157 124 42 149 132 90 119 140 51 49 71
-23 -25 -24 -31 55 58 145 242 306 405 312 331 210 174 187 43 0 52 36 -71 98 149 53 22 -54 10 34 139 146 134 218 151 182 50 8 72 64 79 34 74 85 126 13 -1
31 58 59 63 77 72 165 331 401 369 404 298 221 166 141 39 37 58 29 13 39 121 61 20 3 -16 15 217 190 208 329 132 224 185 50 99 64 41 61 49 38 67 121 80
54 56 60 71 80 80 181 238 276 342 280 354 224 125 108 126 34 -4 7 -1 -38 71 170 153 -121 -60 61 200 97 190 299 305 181 154 129 68 61 59 51 56 29 86 63 49
55 62 51 49 52 79 180 261 292 368 361 215 272 206 105 93 72 17 -28 13 44 90 22 91 68 -18 144 153 91 148 243 272 291 177 127 161 74 68 84 49 15 45 93 103
56 59 66 87 68 87 194 225 372 350 282 326 145 138 176 62 65 -8 4 -40 8 27 86 59 5 -162 -46 181 117 171 277 202 341 203 212 249 228 115 115 65 34 48 55 80
77 85 105 114 108 99 211 171 193 331 253 212 194 95 100 127 93 47 -32 -25 25 19 109 85 -50 -110 -14 175 161 100 93 105 134 242 225 146 20 92 113 86 71 114 75 81
84 85 73 88 92 101 218 190 160 170 348 243 195 170 66 25 71 80 57 -2 27 51 157 67 41 72 -74 35 64 70 162 129 143 115 179 200 67 51 94 121 93 61 59 48
102 96 97 92 83 80 156 159 189 144 298 267 175 198 157 104 34 55 49 35 39 113 169 103 53 -12 14 44 76 109 144 125 46 28 73 54 107 124 130 67 68 49 63 29
62 102 103 93 96 73 85 170 156 132 184 309 225 184 53 26 67 47 23 60 57 76 143 132 81 82 88 118 50 83 151 121 85 64 80 107 137 23 84 252 97 77 65 88
27 42 72 101 97 85 68 136 155 157 148 291 230 152 97 59 45 77 6 20 60 23 31 135 126 82 221 110 93 67 68 93 75 154 70 56 143 81 109 136 126 97 61 61
43 47 52 62 113 78 81 220 181 169 199 224 173 170 97 74 66 88 65 17 74 107 116 28 161 81 100 111 127 82 62 79 43 63 44 18 33 72 51 92 159 112 76 99
27 16 26 53 90 99 149 216 165 189 226 176 197 168 118 8 17 58 76 73 84 100 131 -20 43 100 134 69 79 79 74 50 86 32 20 63 28 32 2 38 61 34 60 52
12 15 24 63 91 138 239 191 104 163 186 229 252 184 146 135 60 50 55 49 54 65 18 43 -93 46 72 130 108 69 19 43 36 17 73 50 94 117 111 134 143 176 155 154
21 38 54 129 130 172 207 121 233 157 136 268 253 175 195 156 96 102 99 102 85 85 20 -82 14 39 62 42 54 117 135 128 97 43 50 151 127 106 116 108 123 169 242 262
54 73 61 124 149 189 179 116 243 163 269 280 170 147 200 267 118 112 97 87 107 105 14 -62 -185 83 59 36 55 39 98 105 78 104 94 76 130 180 163 144 149 192 255 306
145 180 153 249 328 367 259 272 350 195 107 213 260 154 126 156 165 155 120 108 118 77 -7 -39 -41 -1 114 89 106 50 49 17 17 45 118 130 141 125 141 186 202 243 318 398
249 394 383 333 358 112 251 196 168 174 159 118 114 135 90 67 90 147 156 136 117 53 -44 -7 -40 -9 193 188 182 174 106 170 114 158 239 255 210 262 359 362 368 341 329 362
322 326 364 297 275 348 196 172 121 108 105 88 96 101 76 100 97 132 104 133 151 -26 -23 -35 35 -1 94 139 187 300 391 390 403 379 428 350 291 283 305 329 337 354 382 434
150 199 298 371 238 140 92 124 102 72 62 55 94 101 122 89 84 49 10 90 87 41 52 41 -19 56 228 349 312 307 352 353 387 397 396 408 364 315 320 300 319 350 370 403
250 199 170 131 116 65 50 50 70 50 54 73 116 162 130 131 126 60 26 32 32 92 91 90 10 158 175 257 301 306 238 236 263 262 273 334 369 365 324 352 358 397 417 395
141 176 155 107 81 60 58 76 66 64 57 95 137 135 67 -3 11 70 22 49 47 44 13 15 50 186 263 248 218 204 208 204 211 240 240 331 371 409 405 395 396 442 460 418
157 124 87 74 65 61 95 115 74 132 137 100 88 41 33 -12 28 0 36 -22 35 99 93 37 163 171 229 265 256 250 268 294 270 264 322 365 410 490 553 543 516 449 373 288
63 53 62 111 28 51 69 114 96 121 84 56 23 25 -6 -11 32 9 50 -3 -45 80 119 222 187 234 248 259 292 319 328 332 363 381 410 459 485 440 430 334 280 278 242 221
57 47 65 89 27 9 57 111 115 94 74 72 52 16 37 56 49 58 93 70 89 141 218 272 298 257 257 278 313 326 355 365 406 416 385 339 257 213 233 238 195 205 209 209

GFSNW_con_3kmhel_084.txt.gz
Helicity
36 41 48 60 68 50 52 126 108 98 182 185 222 158 159 198 140 217 95 81 46 58 -54 -90 -19 83 141 253 174 128 133 82 50 41 84 104 151 117 155 191 200 189 110 39
23 10 57 57 52 45 141 150 170 116 195 188 191 148 99 38 44 114 137 82 60 24 10 -104 -144 -31 -3 -25 70 129 99 121 127 -3 25 66 118 140 135 239 250 168 134 70
-36 -36 -36 -26 -4 18 124 198 186 281 199 276 39 43 51 68 45 -13 -3 15 16 6 45 83 -192 -17 -18 -38 88 195 65 169 114 51 137 161 182 156 110 140 214 170 170 109
-43 -44 -42 -31 -14 5 82 250 191 225 -15 131 64 59 88 32 47 65 62 13 6 12 52 97 115 49 -44 -142 138 57 95 109 135 101 56 123 205 197 180 93 142 158 88 101
-36 -32 -28 -31 -15 15 42 234 336 285 216 34 32 77 39 82 68 85 27 49 40 53 -34 66 148 228 -82 -187 -85 169 111 70 89 63 83 124 68 108 149 161 87 112 80 89
-31 -30 -23 -11 25 38 153 181 253 253 155 88 33 63 76 68 26 28 49 16 43 88 39 12 45 26 -10 -74 -124 128 180 116 88 76 84 96 93 92 147 100 120 26 63 70
-33 -3 47 63 63 61 155 259 311 373 287 230 132 184 218 196 96 62 53 51 32 44 184 118 122 59 -20 -44 -26 0 94 297 155 84 134 69 31 76 106 72 47 91 66 23
51 46 51 65 59 65 167 233 326 344 278 304 211 177 182 79 55 6 45 33 -37 -16 68 94 139 44 -75 -80 -32 20 42 62 233 172 143 142 92 123 117 123 88 79 94 54
34 28 31 42 47 52 143 196 286 379 322 291 318 208 160 101 75 75 19 54 4 3 49 101 112 7 -55 -80 -12 154 129 84 142 204 121 100 126 134 158 133 117 96 100 66
72 68 59 62 64 59 114 274 358 410 346 262 254 272 232 149 116 83 78 -7 27 62 71 84 113 111 -87 -150 -62 108 175 174 114 145 73 164 151 124 70 176 162 118 109 84
60 69 68 69 71 75 151 193 177 342 346 321 187 165 289 186 104 71 64 104 117 147 89 112 148 79 2 -31 11 56 44 92 106 106 64 38 44 146 167 126 137 36 136 133
85 91 78 58 47 71 120 206 205 186 214 239 197 81 163 175 100 113 70 57 71 130 145 150 111 82 -53 -68 -56 91 41 67 66 51 -14 3 47 50 229 215 175 120 116 89
125 128 88 78 71 64 98 250 279 295 184 113 146 184 40 116 196 135 74 70 50 78 88 112 104 70 37 -3 38 81 65 101 79 40 12 6 27 31 24 34 53 138 95 116
44 170 80 73 58 63 60 243 285 298 225 148 18 69 52 146 205 224 179 32 35 44 111 144 100 51 20 -39 -7 45 53 79 19 29 0 23 54 93 41 44 18 12 97 113
20 139 91 64 75 76 108 256 238 211 238 93 57 109 112 89 77 88 77 46 24 89 95 106 103 62 50 32 16 -82 45 46 88 23 16 9 13 27 -23 -8 31 99 96 105
74 71 35 19 82 119 253 237 131 104 -57 48 114 124 138 117 99 110 55 32 71 83 85 99 105 51 50 55 -12 2 -6 54 71 56 81 26 41 64 67 127 124 93 24 98
24 26 29 50 120 217 287 146 41 1 40 -62 104 189 205 106 142 59 34 110 102 84 84 78 50 32 19 -93 1 127 156 125 71 48 97 94 79 73 117 165 180 205 239 267
24 21 30 35 119 204 208 177 35 191 -76 -57 140 153 159 244 146 168 79 76 110 63 50 87 49 15 6 -31 -29 55 44 66 97 139 115 130 174 169 199 190 201 305 323 363
40 54 118 399 278 170 84 52 128 282 212 73 179 184 103 159 148 123 124 115 100 124 49 69 86 57 24 -79 -32 -33 -37 3 -22 65 114 137 208 221 238 247 266 332 335 411
332 378 260 193 155 128 216 179 133 129 49 89 134 183 111 148 224 185 124 93 93 75 58 111 143 95 13 -27 94 105 20 45 39 125 130 183 226 245 263 247 236 288 338 401
254 261 359 374 345 237 117 107 79 95 99 107 110 136 115 83 103 124 96 91 106 65 83 162 114 -10 21 21 -37 75 54 170 248 281 361 301 224 246 263 272 312 319 347 382
208 290 293 387 240 183 108 94 101 112 89 84 102 117 137 133 118 91 106 91 85 57 126 138 2 12 41 46 106 152 161 214 323 394 459 448 389 295 286 285 294 311 322 319
275 224 212 131 147 84 82 74 106 76 87 66 126 170 147 161 158 138 108 91 80 59 83 87 33 87 81 150 172 200 166 186 302 344 362 355 322 308 285 312 318 333 355 341
121 130 115 80 75 67 89 95 81 75 90 119 130 157 140 125 116 154 116 65 107 128 88 54 49 134 167 132 189 179 226 155 169 204 265 301 334 353 368 367 356 389 429 447
91 80 55 72 80 110 125 125 77 114 141 125 131 116 105 63 26 10 11 38 84 123 104 64 106 99 125 200 269 212 206 210 232 225 271 287 330 352 433 458 467 483 515 525
58 50 84 114 85 114 116 134 118 118 124 98 55 -6 -19 -18 -38 -60 45 133 96 74 64 105 92 93 199 218 213 213 237 282 287 279 311 405 496 531 573 600 563 490 392 296
34 71 103 62 31 49 66 90 116 127 90 25 -9 -12 1 23 -37 -42 -25 -7 52 106 97 163 180 183 215 289 329 336 341 351 343 364 406 449 439 445 482 443 331 263 232 202

GFSNW_con_3kmhel_087.txt.gz
Helicity
35 34 33 35 37 38 70 144 163 136 168 197 274 209 218 166 118 131 131 90 75 104 117 39 78 110 53 122 26 234 226 113 93 40 34 96 107 143 159 173 227 182 175 85
19 27 36 36 41 51 148 168 175 162 192 177 207 153 83 64 49 72 119 125 58 84 81 111 -71 -26 -54 -43 -30 189 144 236 104 77 38 -61 78 150 105 160 183 213 191 141
16 25 34 40 44 49 112 185 187 199 174 171 136 150 86 43 26 18 40 50 54 47 55 64 32 106 96 49 26 -41 -23 108 140 142 106 39 75 99 150 114 172 163 169 162
-25 -22 -18 -25 4 21 62 160 238 230 150 132 174 116 98 72 59 32 25 50 24 54 19 15 -1 58 173 71 -0 -135 -122 99 176 102 95 71 164 161 189 173 157 145 110 88
-14 -11 -16 -28 -22 3 -19 -30 149 215 67 138 53 92 148 84 18 30 59 96 77 62 32 73 13 71 26 42 39 -138 -179 137 232 187 139 100 84 137 109 165 177 190 124 84
-17 -22 -26 -31 -1 15 -79 -98 180 92 -16 25 39 81 98 117 69 39 41 86 30 18 60 45 101 124 111 74 94 -33 -154 -77 181 112 176 99 138 72 121 121 100 202 151 80
-33 -36 -38 -32 -26 3 2 242 323 165 47 9 78 72 78 84 87 95 67 17 21 223 102 61 109 111 54 96 35 33 -63 -88 53 99 172 132 59 36 61 79 78 132 184 131
-22 -22 -21 -15 -2 -19 45 212 300 315 17 36 41 14 22 -10 19 32 95 101 78 36 20 13 30 51 69 29 13 36 18 -39 -46 40 108 114 50 24 54 130 118 75 95 124
7 8 14 54 56 38 93 146 261 336 216 25 176 143 77 105 111 5 22 29 73 63 27 23 20 29 40 -0 -23 45 12 -121 -5 48 108 80 35 44 76 148 66 78 85 76
26 35 36 33 42 34 103 184 232 310 313 264 237 274 271 224 162 109 55 46 79 100 124 88 48 20 87 21 -25 -1 45 38 -37 56 101 114 127 90 94 130 76 164 209 191
50 57 54 44 32 45 117 153 128 256 277 244 199 215 285 269 173 175 64 58 101 141 163 121 110 57 71 29 36 -2 24 19 63 161 99 19 32 88 77 33 77 153 111 66
50 52 58 73 40 55 76 173 190 221 239 257 312 232 140 200 197 180 146 87 110 113 97 126 116 136 139 62 12 55 29 13 -54 65 9 17 49 67 52 125 138 113 100 69
66 55 54 52 51 56 88 189 194 254 211 227 280 260 180 54 79 133 95 60 71 71 127 148 100 111 98 128 25 -0 54 48 61 57 42 43 49 31 18 21 134 226 94 98
76 89 69 67 55 52 72 159 243 238 204 197 132 112 102 104 95 106 152 91 68 69 61 87 112 126 115 99 72 -29 27 55 76 71 47 24 -42 5 103 44 50 175 223 91
71 44 134 78 96 88 88 160 236 222 259 53 11 80 112 121 80 66 102 74 45 52 94 39 71 91 115 87 93 -0 5 91 86 2 18 -18 -1 21 37 48 35 55 49 65
99 92 90 89 119 89 197 233 179 194 232 100 -16 2 116 171 109 135 122 151 105 86 73 67 96 99 87 69 69 35 36 20 28 -18 -35 -67 -19 41 -20 31 -4 48 94 84
59 66 63 127 131 197 243 174 76 214 248 121 -25 70 87 48 111 158 188 135 50 53 62 146 148 112 93 78 28 22 29 82 126 123 64 -18 25 63 144 159 109 130 248 320
-2 37 73 94 128 236 266 201 61 260 244 109 -69 50 140 206 159 135 144 81 -12 65 109 150 175 116 111 57 -18 34 47 56 100 121 130 67 55 126 174 198 155 293 233 210
65 67 58 228 309 275 300 37 83 251 222 50 -60 25 190 220 224 147 176 106 64 84 109 114 88 90 73 58 -20 13 57 18 73 84 76 153 211 204 188 173 181 204 212 298
158 256 332 230 210 210 138 88 90 85 55 7 -124 -19 117 137 166 96 216 209 107 28 50 59 62 77 96 109 106 46 60 14 42 24 104 167 192 199 203 247 294 259 351 341
240 315 257 209 217 271 125 63 61 42 46 9 -2 25 125 113 124 135 139 128 113 -3 33 65 43 20 97 189 266 166 89 67 44 108 120 222 235 262 280 288 298 282 283 295
235 203 254 219 85 72 47 89 51 59 27 19 54 75 117 137 135 101 115 97 79 46 86 101 59 57 138 190 208 163 78 5 128 180 324 444 420 350 341 315 281 308 370 369
274 178 102 46 56 56 78 86 78 19 52 67 87 84 111 139 116 90 67 60 43 97 68 60 48 140 160 136 124 95 111 120 184 233 294 372 416 395 360 411 397 393 438 433
132 118 61 90 72 35 64 109 39 65 122 86 130 152 83 112 124 87 57 60 89 95 108 117 104 148 184 134 119 102 95 141 204 236 318 369 417 450 365 422 338 358 401 456
78 69 34 50 90 135 152 160 94 119 114 112 157 124 103 100 99 84 113 113 103 70 109 163 139 163 142 149 136 117 197 214 203 215 306 311 330 337 337 360 365 382 437 482
17 22 61 100 89 169 163 174 141 160 144 139 132 33 -8 -2 -44 9 22 112 89 58 70 133 191 179 162 136 141 165 190 266 279 303 286 288 316 356 414 450 439 477 474 465
40 63 114 67 53 69 79 104 124 161 99 22 17 -32 -49 -24 -17 28 64 116 86 136 135 131 139 145 153 173 191 199 244 294 295 357 343 369 375 443 499 546 461 425 370 303